sat.trackr.live / text

‹ back to catalog

STARLINK-36912

NORAD 67961 · 2026-038A

PAYLOAD ACTIVE UNKNOWN

§ Identity

Operator
Country
US
Launch date
2026-02-25
Launch site
AFWTR
Launch vehicle
Mass (kg)
RCS (m²)

Purposes: comms

External: N2YO · Heavens-Above · Gunter

§ Orbital elements

Epoch: 2026-05-25T00:38:16.810080Z

Period
93.91 min
Inclination
97.2840°
Eccentricity
0.0001716
Mean motion
15.33451065 rev/d
Perigee alt
464.4 km
Apogee alt
466.7 km
Semi-major
6,843.7 km
B*
3.8805e-4
RAAN
154.9887°
Arg perigee
99.3344°
Mean anomaly
260.8092°
Rev number
1,493

§ Raw data

STARLINK-369121 67961U 26038A   26145.02658345  .00012476  00000+0  38805-3 0  99952 67961  97.2840 154.9887 0001716  99.3344 260.8092 15.33451065 14937

JSON: /api/v1/satellites/67961 · /tle

For live sub-satellite position, see the globe view (requires WebGL).

§ Visibility from observer

Set your observer location to see the next 7 days of passes ≥ 10°. The values pass through the URL so the page stays shareable.

No JS? Fill the form by hand. The geolocation button needs JavaScript.